STARLINK-1017 (44723 NORAD) Tracking and Keplerian Element Data

This shows tracking and keplerian element data for the satellite.

Feedback or suggestion? Click here.




ElementValue
Catalog44723
NameSTARLINK-1017
Epoch Orbit1066
Epoch Day18.25002315
Epoch Year2020
RAAN194.2062
Inclination53.0062
Eccentricity0.0004446
Argument of Perigee345.0982
Mean Anonmoly41.5843
Mean Motion15.73154633
Decay Rate0.00354839
L11 44723U 19074L 20018.25002315 .00354839 00000-0 24311-2 0 9995
L22 44723 53.0062 194.2062 0004446 345.0982 41.5843 15.73154633 10667

Live tracking and technical data element details for STARLINK-1017 (NORAD 44723). STARLINK-1017 can be tracked NOW for your location showing map with azimuth and elevation plus other details from your city location.

Track the satellite on the map from your city or location and see movement details for azimuth, elevation, latitude, longitude, range, height, and movement on the map or in text.







IsCatalogInMostPopularTable: catalog: 44723, numindb: 9
Update: records affected: 1



GetName: 44723 STARLINK-1017

Hit Count: updated at: Mon, 20 Jan 2020 04:01:52 GMT